Date_UTC,IAGA,MLT,MLAT,IGRF_DECL,SZA,N,E,Z
2015-08-15 08:00:00,GHB,5.57,69.98,-28.17,86.84,37.8,24.3,-8.0
2015-08-15 08:01:00,GHB,5.59,69.98,-28.17,86.74,39.2,23.4,-8.3
2015-08-15 08:02:00,GHB,5.61,69.98,-28.17,86.64,39.9,23.2,-7.8
2015-08-15 08:03:00,GHB,5.62,69.98,-28.17,86.55,40.8,23.3,-7.2
2015-08-15 08:04:00,GHB,5.64,69.98,-28.17,86.45,40.4,22.7,-6.5
2015-08-15 08:05:00,GHB,5.66,69.98,-28.17,86.35,39.3,21.8,-6.4
2015-08-15 08:06:00,GHB,5.67,69.98,-28.17,86.25,38.6,22.1,-6.1
2015-08-15 08:07:00,GHB,5.69,69.98,-28.17,86.15,39.2,21.6,-6.5
2015-08-15 08:08:00,GHB,5.71,69.98,-28.17,86.05,38.5,21.0,-5.5
2015-08-15 08:09:00,GHB,5.72,69.98,-28.17,85.96,36.9,20.1,-4.9
2015-08-15 08:10:00,GHB,5.74,69.98,-28.17,85.86,35.4,20.2,-4.2
2015-08-15 08:11:00,GHB,5.76,69.98,-28.17,85.76,33.8,20.7,-3.6
2015-08-15 08:12:00,GHB,5.77,69.98,-28.17,85.66,33.0,22.1,-3.0
2015-08-15 08:13:00,GHB,5.79,69.98,-28.17,85.56,33.3,23.9,-2.6
2015-08-15 08:14:00,GHB,5.81,69.98,-28.17,85.46,34.2,24.2,-2.4
2015-08-15 08:15:00,GHB,5.82,69.98,-28.17,85.36,33.6,24.4,-1.8
2015-08-15 08:16:00,GHB,5.84,69.98,-28.17,85.26,32.5,24.8,-2.3
2015-08-15 08:17:00,GHB,5.86,69.98,-28.17,85.16,33.0,25.4,-4.0
2015-08-15 08:18:00,GHB,5.87,69.98,-28.17,85.06,34.9,26.2,-4.8
2015-08-15 08:19:00,GHB,5.89,69.98,-28.17,84.96,35.5,26.8,-3.4
2015-08-15 08:20:00,GHB,5.91,69.98,-28.17,84.86,34.6,26.4,-1.4
2015-08-15 08:21:00,GHB,5.92,69.98,-28.17,84.76,32.6,25.5,-0.5
2015-08-15 08:22:00,GHB,5.94,69.98,-28.17,84.65,30.6,25.9,0.1
2015-08-15 08:23:00,GHB,5.96,69.98,-28.17,84.55,30.1,27.2,-1.0
2015-08-15 08:24:00,GHB,5.97,69.98,-28.17,84.45,32.9,28.9,-3.6
2015-08-15 08:25:00,GHB,5.99,69.98,-28.17,84.35,36.7,30.6,-4.3
2015-08-15 08:26:00,GHB,6.01,69.98,-28.17,84.25,37.9,31.8,-1.6
2015-08-15 08:27:00,GHB,6.02,69.98,-28.17,84.15,36.7,30.0,-0.1
2015-08-15 08:28:00,GHB,6.04,69.98,-28.17,84.05,35.6,28.5,-0.9
2015-08-15 08:29:00,GHB,6.06,69.98,-28.17,83.94,24.3,35.2,7.8
2015-08-15 08:30:00,GHB,6.07,69.98,-28.17,83.84,79.9,61.9,-37.7
2015-08-15 08:31:00,GHB,6.09,69.98,-28.17,83.74,163.6,103.7,10.0
2015-08-15 08:32:00,GHB,6.11,69.98,-28.17,83.64,119.5,89.9,55.3
2015-08-15 08:33:00,GHB,6.12,69.98,-28.17,83.53,113.8,67.3,5.2
2015-08-15 08:34:00,GHB,6.14,69.98,-28.17,83.43,134.5,79.7,19.2
2015-08-15 08:35:00,GHB,6.16,69.98,-28.17,83.33,113.9,71.3,44.0
2015-08-15 08:36:00,GHB,6.17,69.98,-28.17,83.23,94.6,57.0,24.9
2015-08-15 08:37:00,GHB,6.19,69.98,-28.17,83.12,105.7,51.6,10.5
2015-08-15 08:38:00,GHB,6.21,69.98,-28.17,83.02,98.6,41.0,26.3
2015-08-15 08:39:00,GHB,6.22,69.98,-28.17,82.92,67.5,20.5,27.0
2015-08-15 08:40:00,GHB,6.24,69.98,-28.17,82.81,64.7,10.4,-3.3
2015-08-15 08:41:00,GHB,6.26,69.98,-28.17,82.71,75.0,15.4,3.9
2015-08-15 08:42:00,GHB,6.27,69.98,-28.17,82.60,58.8,8.2,10.0
2015-08-15 08:43:00,GHB,6.29,69.98,-28.17,82.50,61.7,9.6,0.9
2015-08-15 08:44:00,GHB,6.31,69.98,-28.17,82.40,63.0,3.6,6.6
2015-08-15 08:45:00,GHB,6.33,69.98,-28.17,82.29,32.8,2.6,15.8
2015-08-15 08:46:00,GHB,6.34,69.98,-28.17,82.19,37.3,0.7,-5.0
2015-08-15 08:47:00,GHB,6.36,69.98,-28.17,82.08,23.6,0.2,8.6
2015-08-15 08:48:00,GHB,6.38,69.98,-28.17,81.98,4.3,-1.6,5.2
2015-08-15 08:49:00,GHB,6.39,69.98,-28.17,81.87,4.1,0.4,-3.3
2015-08-15 08:50:00,GHB,6.41,69.98,-28.17,81.77,-4.6,2.6,8.2
2015-08-15 08:51:00,GHB,6.43,69.98,-28.17,81.66,-22.5,6.6,3.8
2015-08-15 08:52:00,GHB,6.44,69.98,-28.17,81.56,-13.0,5.1,-16.8
2015-08-15 08:53:00,GHB,6.46,69.98,-28.17,81.45,-14.8,3.3,-18.2
2015-08-15 08:54:00,GHB,6.48,69.98,-28.17,81.35,-25.2,-3.6,-18.9
2015-08-15 08:55:00,GHB,6.49,69.98,-28.17,81.24,-25.2,-1.5,-20.7
2015-08-15 08:56:00,GHB,6.51,69.98,-28.17,81.14,-37.5,-2.6,-6.8
2015-08-15 08:57:00,GHB,6.53,69.98,-28.17,81.03,-39.9,5.2,-17.7
2015-08-15 08:58:00,GHB,6.54,69.98,-28.17,80.93,-20.9,1.8,-25.8
2015-08-15 08:59:00,GHB,6.56,69.98,-28.17,80.82,-26.4,2.0,-15.5
2015-08-15 09:00:00,GHB,6.58,69.98,-28.17,80.72,-26.0,-0.6,-15.4
2015-08-15 09:01:00,GHB,6.59,69.98,-28.17,80.61,-40.0,3.4,-11.6
2015-08-15 09:02:00,GHB,6.61,69.98,-28.17,80.50,-41.5,7.2,-19.5
2015-08-15 09:03:00,GHB,6.63,69.98,-28.17,80.40,-32.0,6.5,-27.6
2015-08-15 09:04:00,GHB,6.64,69.98,-28.17,80.29,-37.7,-3.9,-24.9
2015-08-15 09:05:00,GHB,6.66,69.98,-28.17,80.19,-42.4,-9.8,-30.7
2015-08-15 09:06:00,GHB,6.68,69.98,-28.17,80.08,-50.0,-13.8,-21.8
2015-08-15 09:07:00,GHB,6.69,69.98,-28.17,79.97,-62.5,-15.2,-11.9
2015-08-15 09:08:00,GHB,6.71,69.98,-28.17,79.87,-68.6,-1.7,-17.3
2015-08-15 09:09:00,GHB,6.73,69.98,-28.17,79.76,-41.2,4.4,-36.4
2015-08-15 09:10:00,GHB,6.74,69.98,-28.17,79.65,-49.3,3.5,-16.3
2015-08-15 09:11:00,GHB,6.76,69.98,-28.17,79.55,-45.7,2.3,-42.0
2015-08-15 09:12:00,GHB,6.78,69.98,-28.17,79.44,-32.6,1.3,-41.5
2015-08-15 09:13:00,GHB,6.79,69.98,-28.17,79.33,-29.8,-0.7,-36.1
2015-08-15 09:14:00,GHB,6.81,69.98,-28.17,79.23,-24.1,3.4,-36.9
2015-08-15 09:15:00,GHB,6.83,69.98,-28.17,79.12,-16.3,8.0,-36.9
2015-08-15 09:16:00,GHB,6.84,69.98,-28.17,79.01,-16.7,1.2,-33.8
2015-08-15 09:17:00,GHB,6.86,69.98,-28.17,78.90,-17.5,2.1,-49.2
2015-08-15 09:18:00,GHB,6.88,69.98,-28.17,78.80,-4.9,-3.6,-56.1
2015-08-15 09:19:00,GHB,6.90,69.98,-28.17,78.69,-8.2,-9.8,-44.1
2015-08-15 09:20:00,GHB,6.91,69.98,-28.17,78.58,-23.6,-5.0,-38.2
2015-08-15 09:21:00,GHB,6.93,69.98,-28.17,78.47,-12.7,-7.8,-50.3
2015-08-15 09:22:00,GHB,6.95,69.98,-28.17,78.37,-26.6,-10.4,-27.5
2015-08-15 09:23:00,GHB,6.96,69.98,-28.17,78.26,-31.4,-23.4,-50.6
2015-08-15 09:24:00,GHB,6.98,69.98,-28.17,78.15,-38.5,-21.6,-21.1
2015-08-15 09:25:00,GHB,7.00,69.98,-28.17,78.04,-43.6,-15.1,-25.3
2015-08-15 09:26:00,GHB,7.01,69.98,-28.17,77.94,-37.0,0.7,-4.2
2015-08-15 09:27:00,GHB,7.03,69.98,-28.17,77.83,-24.3,10.3,4.5
2015-08-15 09:28:00,GHB,7.05,69.98,-28.17,77.72,-37.2,20.9,13.9
2015-08-15 09:29:00,GHB,7.06,69.98,-28.17,77.61,-38.4,8.3,-1.9
2015-08-15 09:30:00,GHB,7.08,69.98,-28.17,77.50,-52.5,7.8,-14.6
2015-08-15 09:31:00,GHB,7.10,69.98,-28.17,77.40,-13.7,17.0,-45.9
2015-08-15 09:32:00,GHB,7.11,69.98,-28.17,77.29,-20.6,16.6,-23.8
2015-08-15 09:33:00,GHB,7.13,69.98,-28.17,77.18,-17.2,8.0,-51.6
2015-08-15 09:34:00,GHB,7.15,69.98,-28.17,77.07,-2.6,14.0,-50.0
2015-08-15 09:35:00,GHB,7.16,69.98,-28.17,76.96,-19.7,1.2,-39.2
2015-08-15 09:36:00,GHB,7.18,69.98,-28.17,76.85,-43.0,-7.8,-54.4
2015-08-15 09:37:00,GHB,7.20,69.98,-28.17,76.75,-52.3,-31.0,-59.0
2015-08-15 09:38:00,GHB,7.21,69.98,-28.17,76.64,-69.5,-42.8,-70.0
2015-08-15 09:39:00,GHB,7.23,69.98,-28.17,76.53,-73.4,-47.1,-78.2
2015-08-15 09:40:00,GHB,7.25,69.98,-28.17,76.42,-80.7,-51.2,-73.7
2015-08-15 09:41:00,GHB,7.26,69.98,-28.17,76.31,-83.1,-49.7,-70.8
2015-08-15 09:42:00,GHB,7.28,69.98,-28.17,76.20,-78.3,-41.6,-72.0
2015-08-15 09:43:00,GHB,7.30,69.98,-28.17,76.10,-65.9,-42.6,-73.7
2015-08-15 09:44:00,GHB,7.31,69.98,-28.17,75.99,-63.9,-36.6,-70.6
2015-08-15 09:45:00,GHB,7.33,69.98,-28.17,75.88,-48.7,-34.7,-86.3
2015-08-15 09:46:00,GHB,7.35,69.98,-28.17,75.77,-61.3,-34.6,-62.8
2015-08-15 09:47:00,GHB,7.36,69.98,-28.17,75.66,-70.0,-34.0,-78.6
2015-08-15 09:48:00,GHB,7.38,69.98,-28.17,75.55,-76.0,-38.6,-60.9
2015-08-15 09:49:00,GHB,7.40,69.98,-28.17,75.44,-95.6,-50.7,-81.8
2015-08-15 09:50:00,GHB,7.41,69.98,-28.17,75.34,-76.6,-56.2,-89.6
2015-08-15 09:51:00,GHB,7.43,69.98,-28.17,75.23,-84.4,-55.6,-79.5
2015-08-15 09:52:00,GHB,7.45,69.98,-28.17,75.12,-77.6,-49.1,-92.3
2015-08-15 09:53:00,GHB,7.46,69.98,-28.17,75.01,-74.1,-40.7,-78.6
2015-08-15 09:54:00,GHB,7.48,69.98,-28.17,74.90,-76.7,-44.1,-83.6
2015-08-15 09:55:00,GHB,7.50,69.98,-28.17,74.79,-91.1,-46.2,-72.6
2015-08-15 09:56:00,GHB,7.51,69.98,-28.17,74.68,-98.8,-38.3,-69.7
2015-08-15 09:57:00,GHB,7.53,69.98,-28.17,74.57,-100.6,-34.7,-60.2
2015-08-15 09:58:00,GHB,7.55,69.98,-28.17,74.47,-98.3,-25.7,-70.7
2015-08-15 09:59:00,GHB,7.57,69.98,-28.17,74.36,-84.0,-19.5,-76.8
2015-08-15 10:00:00,GHB,7.58,69.98,-28.17,74.25,-76.0,-9.7,-75.7
2015-08-15 10:01:00,GHB,7.60,69.98,-28.17,74.14,-86.5,-7.3,-75.5
2015-08-15 10:02:00,GHB,7.62,69.98,-28.17,74.03,-89.9,-25.9,-88.1
2015-08-15 10:03:00,GHB,7.63,69.98,-28.17,73.92,-106.6,-40.5,-87.4
2015-08-15 10:04:00,GHB,7.65,69.98,-28.17,73.81,-99.4,-57.4,-114.5
2015-08-15 10:05:00,GHB,7.67,69.98,-28.17,73.70,-93.4,-63.0,-109.8
2015-08-15 10:06:00,GHB,7.68,69.98,-28.17,73.60,-91.0,-56.9,-109.3
2015-08-15 10:07:00,GHB,7.70,69.98,-28.17,73.49,-66.6,-57.9,-136.5
2015-08-15 10:08:00,GHB,7.72,69.98,-28.17,73.38,-81.9,-61.9,-98.6
2015-08-15 10:09:00,GHB,7.73,69.98,-28.17,73.27,-88.0,-59.7,-84.2
2015-08-15 10:10:00,GHB,7.75,69.98,-28.17,73.16,-88.3,-60.2,-124.1
2015-08-15 10:11:00,GHB,7.77,69.98,-28.17,73.05,-84.1,-67.0,-104.9
2015-08-15 10:12:00,GHB,7.78,69.98,-28.17,72.94,-116.1,-82.7,-89.4
2015-08-15 10:13:00,GHB,7.80,69.98,-28.17,72.84,-107.9,-99.4,-128.8
2015-08-15 10:14:00,GHB,7.82,69.98,-28.17,72.73,-126.6,-67.7,-45.4
2015-08-15 10:15:00,GHB,7.83,69.98,-28.17,72.62,-121.3,-95.8,-126.6
2015-08-15 10:16:00,GHB,7.85,69.98,-28.17,72.51,-134.0,-107.5,-53.5
2015-08-15 10:17:00,GHB,7.87,69.98,-28.17,72.40,-154.0,-99.8,-48.7
2015-08-15 10:18:00,GHB,7.88,69.98,-28.17,72.29,-143.5,-95.8,-71.0
2015-08-15 10:19:00,GHB,7.90,69.98,-28.17,72.18,-133.5,-81.7,-55.9
2015-08-15 10:20:00,GHB,7.92,69.98,-28.17,72.08,-131.7,-96.2,-63.3
2015-08-15 10:21:00,GHB,7.93,69.98,-28.17,71.97,-147.6,-103.2,-48.2
2015-08-15 10:22:00,GHB,7.95,69.98,-28.17,71.86,-164.4,-109.6,-56.1
2015-08-15 10:23:00,GHB,7.97,69.98,-28.17,71.75,-173.7,-111.0,-40.3
2015-08-15 10:24:00,GHB,7.98,69.98,-28.17,71.64,-166.8,-120.7,-62.1
2015-08-15 10:25:00,GHB,8.00,69.98,-28.17,71.53,-166.5,-126.3,-58.9
2015-08-15 10:26:00,GHB,8.01,69.98,-28.17,71.43,-159.2,-133.4,-63.3
2015-08-15 10:27:00,GHB,8.03,69.98,-28.17,71.32,-160.5,-128.2,-55.4
2015-08-15 10:28:00,GHB,8.05,69.98,-28.17,71.21,-180.0,-133.9,-62.2
2015-08-15 10:29:00,GHB,8.06,69.98,-28.17,71.10,-204.2,-151.2,-41.3
2015-08-15 10:30:00,GHB,8.08,69.98,-28.17,70.99,-235.1,-173.2,2.7
2015-08-15 10:31:00,GHB,8.10,69.98,-28.17,70.89,-220.7,-236.8,30.9
2015-08-15 10:32:00,GHB,8.11,69.98,-28.17,70.78,-177.4,-257.6,-62.4
2015-08-15 10:33:00,GHB,8.13,69.98,-28.17,70.67,-197.8,-179.4,-73.5
2015-08-15 10:34:00,GHB,8.15,69.98,-28.17,70.56,-243.7,-113.1,-25.2
2015-08-15 10:35:00,GHB,8.16,69.98,-28.17,70.46,-238.6,-77.2,18.0
2015-08-15 10:36:00,GHB,8.18,69.98,-28.17,70.35,-218.1,-49.1,39.1
2015-08-15 10:37:00,GHB,8.20,69.98,-28.17,70.24,-174.8,-63.1,16.5
2015-08-15 10:38:00,GHB,8.21,69.98,-28.17,70.13,-158.5,-108.3,9.4
2015-08-15 10:39:00,GHB,8.23,69.98,-28.17,70.03,-148.7,-108.5,12.5
2015-08-15 10:40:00,GHB,8.25,69.98,-28.17,69.92,-173.0,-107.7,-1.9
2015-08-15 10:41:00,GHB,8.26,69.98,-28.17,69.81,-203.5,-124.3,14.4
2015-08-15 10:42:00,GHB,8.28,69.98,-28.17,69.70,-215.8,-135.3,47.0
2015-08-15 10:43:00,GHB,8.30,69.98,-28.17,69.60,-201.5,-156.4,98.6
2015-08-15 10:44:00,GHB,8.31,69.98,-28.17,69.49,-143.9,-186.1,115.1
2015-08-15 10:45:00,GHB,8.33,69.98,-28.17,69.38,-151.1,-203.7,91.2
2015-08-15 10:46:00,GHB,8.34,69.98,-28.17,69.28,-184.7,-161.0,97.4
2015-08-15 10:47:00,GHB,8.36,69.98,-28.17,69.17,-198.8,-135.5,193.3
2015-08-15 10:48:00,GHB,8.38,69.98,-28.17,69.06,-175.3,-108.5,247.2
2015-08-15 10:49:00,GHB,8.39,69.98,-28.17,68.95,-144.8,-71.5,261.5
2015-08-15 10:50:00,GHB,8.41,69.98,-28.17,68.85,-131.3,-67.2,200.8
2015-08-15 10:51:00,GHB,8.43,69.98,-28.17,68.74,-128.5,-55.4,181.5
2015-08-15 10:52:00,GHB,8.44,69.98,-28.17,68.64,-112.4,-50.6,196.1
2015-08-15 10:53:00,GHB,8.46,69.98,-28.17,68.53,-84.2,-67.9,200.9
2015-08-15 10:54:00,GHB,8.48,69.98,-28.17,68.42,-86.4,-87.5,178.0
2015-08-15 10:55:00,GHB,8.49,69.98,-28.17,68.32,-99.1,-82.9,184.6
2015-08-15 10:56:00,GHB,8.51,69.98,-28.17,68.21,-89.1,-79.4,243.5
2015-08-15 10:57:00,GHB,8.52,69.98,-28.17,68.10,-73.3,-61.1,280.8
2015-08-15 10:58:00,GHB,8.54,69.98,-28.17,68.00,-29.1,-60.7,316.2
2015-08-15 10:59:00,GHB,8.56,69.98,-28.17,67.89,-40.3,-53.9,337.7
2015-08-15 11:00:00,GHB,8.57,69.98,-28.17,67.79,-48.8,-12.8,342.4
2015-08-15 11:01:00,GHB,8.59,69.98,-28.17,67.68,-42.8,58.3,338.9
2015-08-15 11:02:00,GHB,8.61,69.98,-28.17,67.58,-28.2,95.6,334.2
2015-08-15 11:03:00,GHB,8.62,69.98,-28.17,67.47,0.5,125.1,332.4
2015-08-15 11:04:00,GHB,8.64,69.98,-28.17,67.37,-1.3,126.2,329.7
2015-08-15 11:05:00,GHB,8.65,69.98,-28.17,67.26,2.5,128.3,313.1
2015-08-15 11:06:00,GHB,8.67,69.98,-28.17,67.16,-13.4,93.5,283.5
2015-08-15 11:07:00,GHB,8.69,69.98,-28.17,67.05,-18.4,75.4,256.8
2015-08-15 11:08:00,GHB,8.70,69.98,-28.17,66.95,-21.5,56.9,239.3
2015-08-15 11:09:00,GHB,8.72,69.98,-28.17,66.84,-28.3,53.5,231.6
2015-08-15 11:10:00,GHB,8.74,69.98,-28.17,66.74,-33.4,30.2,218.9
2015-08-15 11:11:00,GHB,8.75,69.98,-28.17,66.63,-40.4,24.4,223.6
2015-08-15 11:12:00,GHB,8.77,69.98,-28.17,66.53,-36.7,26.3,211.4
2015-08-15 11:13:00,GHB,8.78,69.98,-28.17,66.43,-34.5,38.8,186.7
2015-08-15 11:14:00,GHB,8.80,69.98,-28.17,66.32,-52.3,42.9,195.0
2015-08-15 11:15:00,GHB,8.82,69.98,-28.17,66.22,-78.3,32.0,188.5
2015-08-15 11:16:00,GHB,8.83,69.98,-28.17,66.11,-68.5,25.6,189.7
2015-08-15 11:17:00,GHB,8.85,69.98,-28.17,66.01,-70.8,18.3,198.7
2015-08-15 11:18:00,GHB,8.86,69.98,-28.17,65.91,-77.0,17.4,203.6
2015-08-15 11:19:00,GHB,8.88,69.98,-28.17,65.80,-89.1,27.8,210.9
2015-08-15 11:20:00,GHB,8.90,69.98,-28.17,65.70,-96.7,33.8,204.2
2015-08-15 11:21:00,GHB,8.91,69.98,-28.17,65.60,-106.5,32.6,203.8
2015-08-15 11:22:00,GHB,8.93,69.98,-28.17,65.50,-121.0,32.5,205.2
2015-08-15 11:23:00,GHB,8.94,69.98,-28.17,65.39,-128.5,29.1,206.9
2015-08-15 11:24:00,GHB,8.96,69.98,-28.17,65.29,-132.0,32.7,209.3
2015-08-15 11:25:00,GHB,8.98,69.98,-28.17,65.19,-151.6,25.5,215.8
2015-08-15 11:26:00,GHB,8.99,69.98,-28.17,65.09,-171.9,16.6,230.7
2015-08-15 11:27:00,GHB,9.01,69.98,-28.17,64.98,-187.0,7.5,225.1
2015-08-15 11:28:00,GHB,9.02,69.98,-28.17,64.88,-219.3,-14.4,237.5
2015-08-15 11:29:00,GHB,9.04,69.98,-28.17,64.78,-244.1,-31.9,238.0
2015-08-15 11:30:00,GHB,9.06,69.98,-28.17,64.68,-258.6,-42.2,228.7
2015-08-15 11:31:00,GHB,9.07,69.98,-28.17,64.58,-271.8,-47.3,220.9
2015-08-15 11:32:00,GHB,9.09,69.98,-28.17,64.48,-284.3,-56.7,207.2
2015-08-15 11:33:00,GHB,9.10,69.98,-28.17,64.38,-289.8,-61.9,203.0
2015-08-15 11:34:00,GHB,9.12,69.98,-28.17,64.27,-297.4,-76.0,197.2
2015-08-15 11:35:00,GHB,9.14,69.98,-28.17,64.17,-300.0,-76.4,186.5
2015-08-15 11:36:00,GHB,9.15,69.98,-28.17,64.07,-311.5,-88.3,186.1
2015-08-15 11:37:00,GHB,9.17,69.98,-28.17,63.97,-332.1,-97.0,191.6
2015-08-15 11:38:00,GHB,9.18,69.98,-28.17,63.87,-348.4,-109.1,186.4
2015-08-15 11:39:00,GHB,9.20,69.98,-28.17,63.77,-355.3,-123.4,177.3
2015-08-15 11:40:00,GHB,9.21,69.98,-28.17,63.67,-367.2,-124.8,173.1
2015-08-15 11:41:00,GHB,9.23,69.98,-28.17,63.57,-388.1,-111.3,178.4
2015-08-15 11:42:00,GHB,9.25,69.98,-28.17,63.47,-396.9,-101.8,177.7
2015-08-15 11:43:00,GHB,9.26,69.98,-28.17,63.38,-398.9,-106.7,176.4
2015-08-15 11:44:00,GHB,9.28,69.98,-28.17,63.28,-391.5,-117.0,163.9
2015-08-15 11:45:00,GHB,9.29,69.98,-28.17,63.18,-378.1,-120.4,157.3
2015-08-15 11:46:00,GHB,9.31,69.98,-28.17,63.08,-375.0,-121.5,158.3
2015-08-15 11:47:00,GHB,9.32,69.98,-28.17,62.98,-371.2,-114.4,158.9
2015-08-15 11:48:00,GHB,9.34,69.98,-28.17,62.88,-377.5,-101.0,163.9
2015-08-15 11:49:00,GHB,9.35,69.98,-28.17,62.78,-385.5,-85.6,169.5
2015-08-15 11:50:00,GHB,9.37,69.98,-28.17,62.69,-379.5,-76.9,165.4
2015-08-15 11:51:00,GHB,9.39,69.98,-28.17,62.59,-379.8,-75.7,159.0
2015-08-15 11:52:00,GHB,9.40,69.98,-28.17,62.49,-378.0,-69.2,153.4
2015-08-15 11:53:00,GHB,9.42,69.98,-28.17,62.39,-380.6,-64.2,160.2
2015-08-15 11:54:00,GHB,9.43,69.98,-28.17,62.30,-373.8,-58.8,166.5
2015-08-15 11:55:00,GHB,9.45,69.98,-28.17,62.20,-362.2,-54.8,171.1
2015-08-15 11:56:00,GHB,9.46,69.98,-28.17,62.10,-348.3,-52.6,181.8
2015-08-15 11:57:00,GHB,9.48,69.98,-28.17,62.01,-332.9,-58.1,183.3
2015-08-15 11:58:00,GHB,9.49,69.98,-28.17,61.91,-326.4,-70.4,193.6
2015-08-15 11:59:00,GHB,9.51,69.98,-28.17,61.82,-330.0,-71.6,204.2
2015-08-15 12:00:00,GHB,9.53,69.98,-28.17,61.72,-326.7,-64.8,213.3
2015-08-15 12:01:00,GHB,9.54,69.98,-28.17,61.63,-331.1,-60.8,233.5
2015-08-15 12:02:00,GHB,9.56,69.98,-28.17,61.53,-324.0,-64.0,231.1
2015-08-15 12:03:00,GHB,9.57,69.98,-28.17,61.44,-312.3,-58.6,238.7
2015-08-15 12:04:00,GHB,9.59,69.98,-28.17,61.34,-313.1,-57.4,256.5
2015-08-15 12:05:00,GHB,9.60,69.98,-28.17,61.25,-296.2,-52.8,248.8
2015-08-15 12:06:00,GHB,9.62,69.98,-28.17,61.15,-277.3,-42.0,250.4
2015-08-15 12:07:00,GHB,9.63,69.98,-28.17,61.06,-269.3,-37.0,265.7
2015-08-15 12:08:00,GHB,9.65,69.98,-28.17,60.96,-257.9,-28.3,272.1
2015-08-15 12:09:00,GHB,9.66,69.98,-28.17,60.87,-278.9,-61.7,298.1
2015-08-15 12:10:00,GHB,9.68,69.98,-28.17,60.78,-288.8,-88.0,295.8
2015-08-15 12:11:00,GHB,9.69,69.98,-28.17,60.69,-282.5,-90.3,290.6
2015-08-15 12:12:00,GHB,9.71,69.98,-28.17,60.59,-262.7,-69.9,285.9
2015-08-15 12:13:00,GHB,9.72,69.98,-28.17,60.50,-246.5,-47.9,296.1
2015-08-15 12:14:00,GHB,9.74,69.98,-28.17,60.41,-222.1,-37.4,313.1
2015-08-15 12:15:00,GHB,9.75,69.98,-28.17,60.32,-217.3,-43.6,344.3
2015-08-15 12:16:00,GHB,9.77,69.98,-28.17,60.22,-243.9,-54.6,391.1
2015-08-15 12:17:00,GHB,9.78,69.98,-28.17,60.13,-259.9,-84.4,404.0
2015-08-15 12:18:00,GHB,9.80,69.98,-28.17,60.04,-254.6,-107.4,412.8
2015-08-15 12:19:00,GHB,9.81,69.98,-28.17,59.95,-267.0,-104.6,430.4
2015-08-15 12:20:00,GHB,9.83,69.98,-28.17,59.86,-261.2,-99.9,404.1
2015-08-15 12:21:00,GHB,9.84,69.98,-28.17,59.77,-228.8,-81.8,375.2
2015-08-15 12:22:00,GHB,9.86,69.98,-28.17,59.68,-198.9,-78.9,341.1
2015-08-15 12:23:00,GHB,9.87,69.98,-28.17,59.59,-187.2,-72.3,330.6
2015-08-15 12:24:00,GHB,9.89,69.98,-28.17,59.50,-189.4,-88.6,328.3
2015-08-15 12:25:00,GHB,9.90,69.98,-28.17,59.41,-232.4,-106.6,339.0
2015-08-15 12:26:00,GHB,9.92,69.98,-28.17,59.32,-282.6,-112.9,364.3
2015-08-15 12:27:00,GHB,9.93,69.98,-28.17,59.23,-335.4,-138.5,371.9
2015-08-15 12:28:00,GHB,9.95,69.98,-28.17,59.15,-377.3,-180.7,312.9
2015-08-15 12:29:00,GHB,9.96,69.98,-28.17,59.06,-392.8,-209.4,252.8
2015-08-15 12:30:00,GHB,9.98,69.98,-28.17,58.97,-395.6,-225.5,182.3
2015-08-15 12:31:00,GHB,9.99,69.98,-28.17,58.88,-367.5,-196.4,145.8
2015-08-15 12:32:00,GHB,10.01,69.98,-28.17,58.80,-341.9,-179.6,144.6
2015-08-15 12:33:00,GHB,10.02,69.98,-28.17,58.71,-323.7,-174.2,115.0
2015-08-15 12:34:00,GHB,10.04,69.98,-28.17,58.62,-307.5,-131.3,117.3
2015-08-15 12:35:00,GHB,10.05,69.98,-28.17,58.54,-279.3,-96.4,143.7
2015-08-15 12:36:00,GHB,10.07,69.98,-28.17,58.45,-260.8,-78.4,186.5
2015-08-15 12:37:00,GHB,10.08,69.98,-28.17,58.37,-255.5,-89.2,181.5
2015-08-15 12:38:00,GHB,10.10,69.98,-28.17,58.28,-268.9,-81.6,198.7
2015-08-15 12:39:00,GHB,10.11,69.98,-28.17,58.19,-268.1,-80.1,186.8
2015-08-15 12:40:00,GHB,10.13,69.98,-28.17,58.11,-253.8,-67.6,187.1
2015-08-15 12:41:00,GHB,10.14,69.98,-28.17,58.03,-261.2,-68.3,186.6
2015-08-15 12:42:00,GHB,10.16,69.98,-28.17,57.94,-253.2,-76.1,172.5
2015-08-15 12:43:00,GHB,10.17,69.98,-28.17,57.86,-236.3,-84.8,161.8
2015-08-15 12:44:00,GHB,10.19,69.98,-28.17,57.77,-208.9,-75.9,170.5
2015-08-15 12:45:00,GHB,10.20,69.98,-28.17,57.69,-183.1,-72.8,161.7
2015-08-15 12:46:00,GHB,10.22,69.98,-28.17,57.61,-170.1,-61.9,143.6
2015-08-15 12:47:00,GHB,10.23,69.98,-28.17,57.53,-145.6,-43.2,143.7
2015-08-15 12:48:00,GHB,10.25,69.98,-28.17,57.44,-137.0,-18.3,151.9
2015-08-15 12:49:00,GHB,10.26,69.98,-28.17,57.36,-132.8,-10.1,168.2
2015-08-15 12:50:00,GHB,10.28,69.98,-28.17,57.28,-133.7,-13.2,182.8
2015-08-15 12:51:00,GHB,10.29,69.98,-28.17,57.20,-142.6,-31.0,201.4
2015-08-15 12:52:00,GHB,10.31,69.98,-28.17,57.12,-128.1,-33.0,197.2
2015-08-15 12:53:00,GHB,10.32,69.98,-28.17,57.04,-85.8,-32.2,141.9
2015-08-15 12:54:00,GHB,10.33,69.98,-28.17,56.96,-43.5,-46.7,118.6
2015-08-15 12:55:00,GHB,10.35,69.98,-28.17,56.88,-28.8,-62.7,110.4
2015-08-15 12:56:00,GHB,10.36,69.98,-28.17,56.80,-19.6,-105.7,106.4
2015-08-15 12:57:00,GHB,10.38,69.98,-28.17,56.72,-35.2,-130.4,174.5
2015-08-15 12:58:00,GHB,10.39,69.98,-28.17,56.64,-46.1,-113.8,188.7
2015-08-15 12:59:00,GHB,10.41,69.98,-28.17,56.57,-43.7,-92.6,204.3
2015-08-15 13:00:00,GHB,10.42,69.98,-28.17,56.49,-32.7,-97.7,214.8
